Temperature
19 19 18 18 18 18 18 18 18 18 18 18 18 18 18 18 18 18 18 18 18 18 18 18 18 18 17 17 17 17 17 17 17 17 17 16 16 16 16 16 16 16 16
19 19 18 18 18 18 18 18 18 18 18 18 18 18 18 18 18 18 18 18 18 18 18 18 18 18 17 17 17 17 17 17 17 17 17 16 16 16 16 16 16 16 16
18 18 18 18 18 18 18 18 18 18 18 18 18 18 18 18 18 18 18 18 18 18 18 18 18 18 17 17 17 17 17 17 17 17 17 16 16 16 16 16 16 16 16
18 18 18 18 18 18 18 18 18 18 18 18 18 18 18 18 18 18 18 18 18 18 18 18 18 18 17 17 17 17 17 17 17 17 16 16 16 16 16 16 16 16 16
18 18 18 18 18 18 18 18 18 18 17 17 17 17 17 17 17 18 18 18 18 18 18 18 18 18 17 17 17 17 17 17 16 16 16 16 16 16 16 16 16 16 16
18 18 18 18 18 18 18 18 18 18 17 17 17 17 17 17 17 18 18 18 18 18 18 18 18 17 17 17 17 17 17 17 16 16 16 16 16 16 16 16 16 16 16
18 18 18 18 18 18 18 18 17 17 17 17 17 17 17 17 18 18 18 18 18 18 18 18 18 17 17 17 17 17 17 17 17 16 16 16 16 16 16 16 16 16 16
18 18 18 18 18 18 18 17 17 17 17 17 17 17 17 17 18 18 18 18 18 18 17 17 17 17 17 17 17 17 17 17 17 16 16 16 16 16 16 16 16 16 15
18 18 18 18 18 18 18 18 18 18 17 17 17 17 17 17 17 17 17 17 17 17 17 17 17 17 17 17 17 17 17 16 16 16 16 16 16 16 15 15 15 15 15
18 18 18 18 18 18 18 18 17 17 17 17 17 17 17 17 17 17 17 17 17 17 17 17 17 17 17 17 17 17 17 16 16 16 16 16 15 15 15 15 15 15 15
18 18 18 18 18 18 18 17 17 17 17 17 17 17 17 17 17 17 17 17 17 17 17 17 17 17 17 17 17 16 16 16 16 16 16 16 15 15 15 15 15 15 15
18 18 17 17 17 17 17 17 17 17 17 17 17 17 17 17 17 17 17 17 17 17 17 17 17 17 16 16 16 16 16 16 16 16 16 15 15 15 15 15 15 15 15
17 17 17 17 17 17 17 17 17 17 17 17 17 17 17 17 17 17 17 17 16 16 16 16 16 16 16 16 16 16 16 16 16 15 15 15 15 15 15 15 15 14 14
17 17 17 17 17 17 17 17 17 17 17 17 17 17 17 17 17 17 16 16 16 16 16 16 16 16 16 16 16 16 16 16 15 15 15 15 15 15 15 15 14 14 14
17 17 17 16 16 17 16 16 16 16 16 16 16 16 16 16 16 16 16 16 16 16 15 16 16 16 15 15 15 15 15 15 15 15 15 15 15 15 15 14 14 14 14
16 16 16 16 16 16 16 16 16 16 16 16 16 16 16 16 16 16 16 16 16 16 15 15 15 15 15 15 15 15 15 15 15 15 15 14 14 14 14 14 14 14 14
16 16 16 16 16 16 16 16 16 16 16 16 16 16 16 16 16 16 16 16 16 15 15 15 15 15 15 15 15 15 15 15 15 15 14 14 14 14 14 14 14 14 14
16 16 16 16 16 16 16 15 15 15 16 16 15 15 15 15 15 15 15 15 15 15 15 15 15 15 15 15 15 15 15 15 14 14 14 14 14 14 14 13 13 13 13
16 16 16 16 16 15 15 15 15 15 15 15 15 15 15 15 15 15 15 15 15 15 15 14 14 14 14 14 14 14 14 14 14 14 14 14 14 14 14 13 13 13 13
16 15 15 15 15 15 15 15 15 15 15 14 14 14 14 14 14 14 14 14 14 14 14 14 14 14 14 14 14 14 14 14 14 14 14 14 14 13 13 13 13 13 13
15 15 15 15 15 15 14 14 14 14 14 14 14 14 14 14 14 14 14 14 14 14 14 14 14 14 14 14 14 14 14 14 13 13 13 13 13 13 13 13 13 13 12
15 15 15 15 15 14 14 14 14 14 14 14 14 14 14 14 13 13 13 13 13 13 13 13 13 13 13 13 13 13 13 13 13 13 13 13 13 13 13 13 13 12 12
15 15 15 14 14 14 14 14 14 14 13 13 13 13 13 13 13 13 13 13 13 13 13 13 13 13 13 13 13 13 13 13 13 13 12 13 13 13 13 13 12 12 12
15 15 14 14 14 14 14 14 13 13 13 13 13 13 13 13 13 12 12 12 12 12 12 12 12 12 12 12 13 13 12 12 12 12 12 12 12 12 12 12 12 12 12
14 14 14 14 13 13 13 13 13 13 13 13 12 12 12 12 12 12 12 12 12 12 12 12 12 12 12 12 12 12 12 12 12 12 12 12 12 12 12 12 12 12 11
14 14 13 13 13 13 13 13 12 12 12 12 12 12 12 12 12 11 11 11 11 11 11 12 12 12 12 12 12 12 12 12 11 12 12 12 12 12 11 12 12 11 11
Wind_Speed
3 4 4 4 4 5 5 5 5 6 5 5 5 6 5 5 4 3 4 5 5 6 6 5 5 5 5 5 4 4 4 6 6 5 4 4 5 6 6 6 5 6 8
3 4 4 4 4 5 5 5 5 5 4 4 5 5 4 4 3 3 2 3 5 5 5 5 5 5 5 5 4 4 4 4 5 5 5 4 5 6 6 6 5 5 6
3 4 4 4 4 4 5 5 5 4 4 4 4 3 3 3 2 2 2 2 2 3 4 4 4 4 4 4 4 4 4 3 4 4 4 4 5 6 6 6 6 6 6
4 4 4 3 3 4 4 4 4 4 4 4 3 2 2 2 2 2 2 2 2 2 2 3 3 3 3 4 4 3 3 3 5 5 5 5 4 5 5 6 6 6 6
4 4 3 3 4 4 4 4 4 3 3 3 3 2 2 2 1 2 2 1 2 2 1 1 2 2 2 2 3 3 3 4 5 5 4 4 4 5 5 5 6 6 6
4 4 4 3 4 4 4 4 4 3 3 2 2 2 2 1 1 1 1 1 1 1 1 1 1 1 2 2 2 2 3 3 4 4 4 3 4 4 5 6 7 7 7
4 4 4 3 3 3 3 3 3 3 2 2 2 2 2 2 2 1 1 1 1 1 1 2 2 1 1 1 1 2 2 3 3 3 3 2 2 3 4 6 7 7 7
4 3 3 3 3 3 3 3 2 2 1 1 2 2 2 2 2 2 1 1 0 1 1 1 1 1 1 1 1 2 2 3 3 3 3 3 3 3 3 3 4 6 8
3 3 3 3 3 3 2 2 2 2 1 1 1 2 1 1 1 2 1 1 0 0 0 0 1 1 1 1 1 1 2 2 3 3 4 3 4 4 4 5 5 5 7
3 3 3 3 3 2 2 1 1 1 2 1 0 0 1 2 1 0 1 1 1 0 0 0 0 1 2 1 1 0 2 2 3 3 4 3 4 4 4 5 5 5 5
3 3 3 3 2 2 1 1 1 1 1 1 1 0 0 0 1 2 1 1 1 1 0 0 0 1 1 1 1 1 1 2 3 3 4 4 3 3 3 3 3 4 4
3 3 3 2 2 2 1 1 1 1 1 1 1 1 1 1 1 1 1 1 1 1 1 0 0 1 0 1 1 1 1 1 2 3 2 2 2 2 2 3 3 2 2
2 2 2 2 2 1 1 1 1 1 1 1 1 1 1 1 1 1 2 1 1 1 1 1 1 1 1 1 1 1 1 1 2 2 1 1 1 1 0 1 1 1 1
0 1 2 2 2 2 1 1 1 1 1 1 0 0 0 0 0 1 2 2 1 1 1 2 1 1 1 1 1 1 1 2 2 1 1 1 0 1 2 1 2 2 2
1 2 2 2 2 2 2 2 2 1 1 1 1 0 0 0 0 0 1 2 3 2 2 1 1 1 1 1 0 0 0 1 2 1 2 2 2 2 2 3 3 3 2
1 2 2 2 1 2 2 2 2 1 2 1 1 1 1 1 1 0 1 0 1 3 2 1 1 1 1 0 1 0 0 1 1 1 2 3 3 3 3 3 4 4 4
1 1 1 1 1 1 2 2 2 2 2 1 1 1 1 1 1 1 1 1 1 1 2 1 0 1 0 1 1 1 1 0 1 2 2 3 3 4 3 3 3 3 4
1 1 1 1 1 1 1 1 1 1 1 1 1 1 1 1 1 1 1 1 1 1 2 1 0 1 0 0 1 1 1 1 0 0 1 3 3 3 3 3 3 3 4
1 1 1 1 1 1 1 1 0 0 0 0 0 0 0 0 1 0 0 1 1 1 1 2 1 0 0 1 1 1 1 1 0 1 1 2 2 3 3 3 3 4 4
1 0 0 0 1 1 1 1 0 0 1 1 1 1 1 1 1 1 1 1 1 1 1 1 1 0 1 1 0 0 1 1 1 1 1 1 1 2 3 3 3 4 4
1 1 0 1 1 1 1 0 0 0 1 1 1 1 1 2 2 2 1 2 2 2 1 1 1 1 1 1 1 1 1 1 1 1 1 1 1 1 2 3 4 5 5
0 0 0 0 1 1 2 1 0 0 1 1 2 2 2 2 2 1 1 2 3 3 3 2 2 2 3 2 2 2 1 1 2 1 1 2 2 3 3 3 5 6 6
1 0 1 1 1 2 3 3 2 0 1 2 2 2 2 2 1 1 1 1 1 3 5 4 4 4 4 4 3 3 3 2 2 1 1 2 2 3 3 5 7 8 8
1 1 1 1 1 2 3 3 2 1 1 2 2 2 2 2 1 0 1 1 1 2 3 3 4 5 5 4 4 4 4 3 2 2 2 2 2 3 2 3 6 7 8
1 1 1 1 1 2 3 2 2 1 1 2 2 2 1 1 2 1 1 1 2 3 3 3 4 5 6 5 4 2 2 2 3 2 3 2 2 2 2 3 3 6 7
1 1 1 1 1 2 3 2 1 0 1 2 2 2 3 2 2 2 2 3 3 4 3 3 3 3 3 3 5 5 4 4 3 2 3 3 2 1 1 2 2 3 4
Wind_Direction
55 52 52 53 55 65 76 82 86 87 88 87 87 94 99 105 112 119 131 144 153 163 168 171 172 172 180 185 188 189 203 206 196 197 196 197 195 184 178 174 177 194 198
71 66 61 57 58 66 77 86 88 87 83 85 82 84 92 99 105 115 129 148 159 164 172 176 177 179 183 185 190 188 189 194 195 198 190 185 188 180 178 181 183 188 192
81 79 74 66 65 75 80 84 81 83 84 84 80 77 83 93 106 117 133 139 158 172 183 181 180 187 189 186 179 180 187 185 177 177 174 175 181 186 187 192 196 197 197
90 84 79 74 76 81 81 82 78 79 77 79 72 59 70 89 99 109 116 133 147 162 172 182 178 184 186 184 178 178 186 173 170 180 185 184 183 191 197 201 200 199 200
92 91 83 80 81 78 74 82 77 86 90 81 73 58 54 65 75 98 104 119 124 122 143 175 154 144 165 178 176 186 191 184 181 186 190 192 199 203 204 203 204 207 209
90 91 83 76 81 81 72 75 79 75 88 87 75 57 36 31 59 72 100 104 119 129 133 140 135 139 155 172 177 195 204 203 185 186 189 191 202 215 219 216 215 216 217
86 93 93 86 85 91 92 91 93 81 67 81 86 53 34 44 57 55 87 101 115 142 145 162 171 182 172 158 194 198 203 200 190 190 188 197 211 224 228 229 225 224 224
84 99 102 104 102 101 90 88 93 95 62 64 102 85 26 14 16 27 68 120 112 119 154 187 190 195 205 222 240 223 210 211 209 210 216 225 236 237 238 242 236 234 231
70 78 86 93 101 114 119 107 108 123 126 48 79 135 134 214 328 358 5 20 47 84 75 131 168 189 196 205 238 269 249 232 236 240 237 237 244 242 244 251 255 247 235
57 74 84 89 94 105 112 121 115 138 143 152 14 81 190 180 173 322 350 8 34 34 327 296 145 159 172 165 171 233 280 261 260 261 260 255 251 249 243 254 254 246 239
43 57 77 90 86 89 105 104 100 119 149 172 200 195 144 128 153 177 250 324 0 328 275 232 194 172 186 192 197 224 258 272 278 275 267 258 259 257 251 254 254 243 239
26 33 58 65 68 77 75 99 112 120 135 174 205 197 187 197 192 177 207 252 285 306 311 274 261 259 208 205 213 211 286 290 291 287 276 271 274 273 265 239 248 243 244
23 13 38 51 52 54 52 59 100 115 142 163 194 216 209 238 211 181 176 213 244 297 322 319 271 268 241 227 244 267 293 302 282 280 277 284 277 267 251 211 221 235 255
14 17 49 55 50 51 49 56 55 37 82 105 99 152 159 278 192 188 182 172 201 268 295 291 319 296 277 240 251 243 281 282 242 219 191 131 142 169 124 115 116 103 82
55 61 60 51 37 40 40 50 50 32 61 82 89 104 98 350 96 181 176 185 180 206 241 269 282 309 271 198 254 245 246 247 220 198 169 140 134 126 111 102 104 98 85
50 73 71 67 54 41 51 56 43 39 69 62 98 87 44 14 39 77 157 173 180 188 212 250 249 314 332 296 52 64 293 244 210 182 165 151 146 137 119 110 106 99 88
118 108 103 83 56 43 46 53 34 39 57 50 54 85 48 49 74 64 90 108 124 157 187 245 288 342 13 8 21 41 47 29 209 188 174 162 147 138 132 121 115 111 103
108 117 94 74 44 31 37 57 31 31 50 67 57 71 9 42 57 77 105 133 154 165 168 188 266 335 327 325 340 341 358 352 340 219 180 160 153 149 146 141 135 129 119
112 78 74 51 1 353 355 337 311 331 336 300 311 118 291 76 42 66 145 180 178 155 149 163 202 293 333 358 5 331 327 340 288 249 210 185 162 161 158 158 157 152 142
143 99 28 332 324 332 322 321 333 336 327 317 303 269 266 230 229 223 207 200 172 149 133 143 165 259 283 303 254 299 323 323 296 312 303 234 194 187 186 182 178 171 163
170 175 112 360 352 337 320 339 259 306 318 314 305 282 264 252 244 222 208 195 180 173 164 174 202 210 251 249 236 237 251 289 273 259 247 249 232 227 219 208 198 191 182
194 165 231 319 338 325 332 325 304 282 300 291 294 291 280 271 271 261 234 210 195 193 197 196 209 228 244 243 235 230 221 242 270 236 215 241 209 227 230 220 211 203 197
215 223 275 299 308 315 335 343 342 352 309 297 291 294 292 294 318 274 281 276 247 216 206 200 212 232 238 231 217 227 221 225 245 259 209 240 220 236 236 227 213 203 199
213 223 240 264 292 317 346 354 6 15 325 311 293 272 271 284 271 219 219 280 285 269 242 223 223 239 242 230 217 221 221 225 258 237 196 240 234 233 238 239 219 208 204
225 250 251 277 298 315 343 358 11 342 330 319 307 299 277 265 274 214 172 246 289 292 281 253 245 252 252 234 205 189 200 216 254 245 200 221 239 234 235 237 228 212 209
223 267 340 314 296 309 338 359 14 312 313 311 314 309 286 278 270 221 210 217 244 273 290 294 291 293 267 249 219 209 209 220 234 244 203 201 202 194 245 231 228 216 211
Height
1501 1501 1500 1500 1499 1498 1498 1499 1501 1503 1504 1506 1507 1509 1510 1513 1515 1516 1518 1520 1521 1523 1524 1525 1526 1527 1527 1528 1529 1530 1530 1531 1531 1532 1533 1533 1534 1535 1536 1537 1538 1539 1540
1504 1504 1503 1503 1503 1503 1503 1503 1505 1506 1507 1509 1510 1511 1512 1514 1516 1517 1519 1520 1522 1523 1524 1525 1525 1526 1527 1528 1528 1529 1529 1530 1530 1531 1532 1532 1533 1533 1534 1536 1537 1538 1539
1507 1506 1506 1506 1506 1506 1506 1507 1508 1509 1510 1511 1512 1513 1514 1515 1517 1518 1519 1521 1522 1523 1524 1524 1525 1526 1526 1527 1528 1528 1529 1529 1529 1529 1530 1531 1532 1532 1533 1534 1536 1537 1538
1509 1508 1508 1508 1509 1509 1509 1510 1510 1511 1512 1512 1513 1514 1516 1517 1518 1519 1520 1521 1522 1523 1523 1524 1525 1525 1526 1526 1527 1527 1528 1528 1529 1529 1529 1530 1531 1531 1532 1532 1534 1535 1536
1511 1511 1510 1511 1511 1511 1511 1512 1512 1513 1513 1514 1515 1516 1517 1518 1518 1519 1520 1521 1522 1522 1523 1524 1525 1525 1525 1526 1526 1526 1527 1527 1528 1528 1529 1529 1529 1530 1531 1531 1532 1533 1534
1512 1512 1512 1512 1513 1513 1513 1514 1514 1514 1515 1516 1516 1517 1518 1518 1519 1520 1520 1521 1522 1522 1523 1523 1524 1524 1525 1525 1525 1526 1526 1527 1527 1527 1528 1528 1528 1529 1529 1530 1531 1531 1532
1513 1513 1513 1514 1514 1514 1515 1515 1515 1516 1516 1517 1517 1518 1519 1519 1520 1520 1521 1521 1521 1522 1523 1523 1523 1523 1524 1524 1525 1525 1525 1526 1526 1526 1526 1526 1527 1527 1527 1528 1528 1529 1530
1515 1515 1515 1515 1515 1516 1516 1516 1516 1517 1517 1518 1518 1518 1519 1521 1520 1520 1521 1521 1521 1522 1522 1522 1523 1523 1523 1523 1524 1524 1524 1524 1524 1524 1525 1525 1525 1525 1525 1526 1526 1527 1527
1516 1516 1516 1516 1516 1517 1516 1517 1517 1517 1517 1518 1519 1519 1519 1519 1520 1520 1520 1520 1521 1521 1522 1522 1521 1522 1522 1522 1522 1522 1523 1523 1523 1522 1523 1523 1523 1523 1523 1523 1523 1524 1524
1517 1517 1517 1517 1517 1517 1517 1517 1517 1517 1517 1518 1518 1519 1519 1519 1519 1519 1520 1520 1520 1520 1520 1520 1520 1520 1520 1520 1521 1521 1521 1521 1521 1521 1521 1521 1521 1521 1520 1520 1520 1521 1521
1517 1517 1517 1517 1516 1516 1516 1516 1517 1517 1517 1517 1517 1517 1517 1518 1518 1518 1517 1518 1518 1519 1519 1519 1519 1519 1519 1519 1519 1519 1519 1519 1519 1519 1519 1519 1518 1518 1518 1518 1518 1518 1518
1517 1517 1516 1516 1516 1516 1515 1515 1515 1515 1515 1515 1516 1516 1516 1516 1516 1516 1516 1516 1516 1517 1517 1517 1517 1517 1517 1517 1517 1517 1517 1517 1517 1517 1517 1517 1516 1516 1515 1515 1515 1515 1515
1516 1516 1516 1516 1515 1515 1514 1514 1514 1514 1514 1514 1514 1514 1514 1514 1514 1514 1514 1514 1514 1514 1515 1515 1516 1516 1516 1516 1515 1515 1516 1516 1516 1515 1515 1515 1514 1514 1513 1513 1513 1513 1513
1516 1516 1515 1515 1515 1514 1513 1513 1512 1512 1512 1512 1512 1513 1513 1512 1512 1513 1513 1513 1512 1513 1513 1513 1514 1514 1514 1514 1514 1514 1513 1514 1514 1513 1513 1513 1512 1512 1512 1511 1511 1511 1511
1516 1515 1515 1514 1514 1513 1513 1512 1511 1511 1511 1511 1511 1511 1511 1511 1511 1511 1511 1511 1511 1510 1511 1511 1511 1512 1512 1512 1512 1512 1512 1512 1512 1511 1511 1511 1510 1510 1510 1510 1509 1509 1510
1515 1514 1514 1514 1513 1512 1512 1511 1510 1510 1510 1509 1509 1509 1509 1509 1509 1509 1509 1509 1509 1509 1508 1508 1509 1510 1510 1510 1510 1510 1511 1511 1510 1510 1509 1509 1509 1509 1509 1508 1508 1508 1508
1514 1513 1513 1513 1512 1511 1510 1510 1509 1509 1508 1508 1508 1507 1507 1507 1507 1507 1507 1507 1507 1507 1506 1507 1507 1508 1508 1508 1509 1509 1509 1509 1509 1508 1508 1508 1508 1507 1507 1507 1507 1507 1507
1513 1513 1512 1511 1510 1510 1509 1508 1508 1507 1507 1506 1506 1506 1506 1505 1505 1505 1505 1505 1505 1505 1505 1505 1505 1506 1506 1507 1507 1507 1507 1507 1506 1506 1506 1506 1506 1506 1506 1506 1506 1506 1506
1512 1511 1511 1510 1509 1508 1508 1507 1507 1506 1505 1505 1504 1504 1504 1503 1503 1503 1503 1503 1503 1503 1503 1503 1503 1504 1504 1505 1505 1505 1505 1504 1504 1504 1504 1504 1504 1504 1504 1504 1504 1505 1505
1510 1510 1509 1508 1508 1507 1506 1506 1505 1504 1503 1503 1503 1502 1502 1501 1501 1501 1501 1501 1501 1501 1501 1501 1501 1501 1502 1502 1502 1502 1502 1502 1502 1502 1502 1502 1502 1502 1502 1502 1503 1503 1503
1508 1508 1507 1507 1506 1505 1504 1504 1503 1502 1501 1501 1500 1500 1500 1499 1499 1499 1498 1498 1498 1498 1498 1498 1499 1499 1499 1500 1500 1500 1500 1500 1500 1500 1500 1500 1500 1500 1500 1500 1501 1501 1501
1506 1506 1505 1505 1504 1503 1503 1502 1501 1500 1499 1499 1498 1497 1497 1497 1496 1496 1496 1496 1496 1495 1495 1496 1496 1496 1496 1497 1497 1497 1497 1498 1497 1498 1497 1497 1498 1498 1498 1498 1498 1498 1499
1504 1503 1503 1503 1502 1501 1500 1499 1498 1497 1497 1496 1495 1495 1494 1494 1494 1493 1493 1493 1493 1493 1494 1494 1493 1493 1494 1494 1494 1494 1494 1494 1494 1494 1494 1494 1495 1495 1495 1495 1496 1496 1496
1501 1501 1500 1499 1499 1499 1498 1497 1496 1495 1494 1494 1493 1492 1491 1491 1491 1491 1490 1490 1490 1490 1491 1491 1491 1491 1491 1491 1491 1492 1491 1491 1491 1491 1492 1491 1491 1491 1492 1492 1493 1493 1493
1499 1498 1497 1497 1496 1496 1495 1494 1493 1492 1491 1490 1490 1489 1489 1488 1488 1488 1488 1487 1487 1488 1488 1488 1488 1488 1488 1488 1488 1488 1488 1488 1487 1487 1488 1488 1487 1488 1488 1488 1489 1489 1490
1496 1495 1494 1494 1493 1493 1492 1491 1491 1490 1488 1487 1487 1486 1486 1485 1485 1485 1484 1484 1484 1484 1484 1484 1484 1484 1484 1484 1484 1484 1484 1484 1483 1483 1484 1484 1484 1484 1484 1484 1485 1486 1486